Clearwater, FL

3:21 PM EST on December 06, 2016 (GMT -0500)
Saint Petersburg-Clearwater International

Weather History for KPIE - January, 2009

Change the Weather History Date:

Friday, January 2, 2009

  Actual Average Record
Temperature  
Mean Temperature 70 °F -  
Max Temperature 77 °F 71 °F 83 °F (1985)
Min Temperature 62 °F 56 °F 37 °F (2008)
Cooling Degree Days 4    
Growing Degree Days 20 (Base 50)    
Moisture  
Dew Point 57 °F    
Average Humidity 70    
Maximum Humidity 90    
Minimum Humidity 54    
Precipitation  
Precipitation 0.00 in - - ()
Sea Level Pressure  
Sea Level Pressure 30.10 in    
Wind  
Wind Speed 9 mph (SSE)    
Max Wind Speed 13 mph    
Max Gust Speed -    
Visibility 10 miles    
Events      
Averages and records for this station are not official NWS values.
T = Trace of Precipitation, MM = Missing Value Source: NWS Daily Summary

Daily Weather History Graph

Daily Weather History Graph

Search for Another Location

Airport or City:

Trip Planner

Search our weather history database for the weather conditions in past years. The results will help you decide how hot, cold, wet, or windy it might be!

Date:

Astronomy

Jan. 02, 2009 Rise Set
Actual Time 7:22 AM EST 5:47 PM EST
Civil Twilight 6:56 AM EST 6:13 PM EST
Nautical Twilight 6:27 AM EST 6:42 PM EST
Astronomical Twilight 5:58 AM EST 7:11 PM EST
Moon 11:02 AM EST (1/2) 11:26 PM EST (1/2)
Length of Visible Light 11h 16m
Length of Day
10h 25m
Waxing Crescent, 32% of the Moon is Illuminated
Jan 2
Waxing Crescent
Jan 4
First Quarter
Jan 10
Full
Jan 17
Last Quarter
Jan 26
New

Hourly Weather History & Observations

Time (EST) Temp. Dew Point Humidity Pressure Visibility Wind Dir Wind Speed Gust Speed Precip Events Conditions
12:53 AM 63.0 °F 52.0 °F 67% 30.10 in 10.0 mi ESE 11.5 mph - N/A   Partly Cloudy
1:53 AM 63.0 °F 52.0 °F 67% 30.10 in 10.0 mi ESE 10.4 mph - N/A   Overcast
2:53 AM 63.0 °F 53.1 °F 70% 30.09 in 10.0 mi ESE 6.9 mph - N/A   Mostly Cloudy
3:53 AM 63.0 °F 54.0 °F 72% 30.09 in 10.0 mi ESE 5.8 mph - N/A   Mostly Cloudy
4:53 AM 63.0 °F 55.0 °F 75% 30.08 in 10.0 mi SE 8.1 mph - N/A   Partly Cloudy
5:53 AM 63.0 °F 55.0 °F 75% 30.08 in 10.0 mi SE 8.1 mph - N/A   Mostly Cloudy
6:53 AM 62.1 °F 55.0 °F 78% 30.11 in 10.0 mi SE 5.8 mph - N/A   Clear
7:53 AM 64.0 °F 55.0 °F 73% 30.13 in 10.0 mi SE 5.8 mph - N/A   Partly Cloudy
8:53 AM 68.0 °F 55.9 °F 65% 30.15 in 10.0 mi SE 9.2 mph - N/A   Mostly Cloudy
9:53 AM 69.1 °F 55.9 °F 63% 30.16 in 10.0 mi SSE 12.7 mph - N/A   Scattered Clouds
10:53 AM 71.1 °F 57.0 °F 61% 30.16 in 10.0 mi SSE 8.1 mph - N/A   Mostly Cloudy
11:07 AM 71.6 °F 57.2 °F 60% 30.16 in 10.0 mi SE 10.4 mph - N/A   Overcast
11:34 AM 71.6 °F 57.2 °F 60% 30.15 in 10.0 mi SE 9.2 mph - N/A   Overcast
11:53 AM 73.0 °F 57.9 °F 59% 30.14 in 10.0 mi SSE 11.5 mph - N/A   Mostly Cloudy
12:53 PM 77.0 °F 59.0 °F 54% 30.10 in 10.0 mi SSE 9.2 mph - N/A   Mostly Cloudy
1:53 PM 75.9 °F 59.0 °F 56% 30.08 in 10.0 mi South 10.4 mph - N/A   Mostly Cloudy
2:53 PM 75.0 °F 59.0 °F 57% 30.06 in 10.0 mi SSW 9.2 mph - N/A   Scattered Clouds
3:53 PM 75.9 °F 61.0 °F 60% 30.06 in 10.0 mi SW 12.7 mph - N/A   Mostly Cloudy
4:53 PM 73.9 °F 60.1 °F 62% 30.06 in 10.0 mi SSW 9.2 mph - N/A   Clear
5:53 PM 68.0 °F 59.0 °F 73% 30.07 in 10.0 mi SSW 8.1 mph - N/A   Clear
6:53 PM 66.0 °F 59.0 °F 78% 30.07 in 10.0 mi South 8.1 mph - N/A   Clear
7:53 PM 66.0 °F 59.0 °F 78% 30.09 in 10.0 mi SSW 3.5 mph - N/A   Clear
8:53 PM 64.0 °F 59.0 °F 84% 30.10 in 10.0 mi SSW 5.8 mph - N/A   Clear
9:53 PM 64.0 °F 60.1 °F 87% 30.10 in 10.0 mi South 5.8 mph - N/A   Clear
10:53 PM 62.1 °F 59.0 °F 90% 30.10 in 8.0 mi South 4.6 mph - N/A   Clear
11:53 PM 63.0 °F 60.1 °F 90% 30.09 in 8.0 mi South 3.5 mph - N/A   Clear